Satellite: NOAA-11 Catalog number: 19531 Epoch time: 11327.66226058 Element set: 0710 Inclination: 098.7472 deg RA of node: 052.0598 deg Eccentricity: 0.0011924 Arg of perigee: 092.9676 deg Mean anomaly: 267.2878 deg Mean motion: 14.14939290 rev/day Decay rate: 5.2e-07 rev/day^2 Epoch rev: 19530 Checksum: 318
Satellite: NOAA-12 Catalog number: 21263 Epoch time: 11327.96520194 Element set: 0223 Inclination: 098.7447 deg RA of node: 345.4547 deg Eccentricity: 0.0014691 Arg of perigee: 080.5690 deg Mean anomaly: 279.7149 deg Mean motion: 14.25457062 rev/day Decay rate: 1.27e-06 rev/day^2 Epoch rev: 06717 Checksum: 310
Satellite: MET-3/5 Catalog number: 21655 Epoch time: 11327.66765929 Element set: 0268 Inclination: 082.5555 deg RA of node: 298.0885 deg Eccentricity: 0.0014574 Arg of perigee: 115.3833 deg Mean anomaly: 244.8833 deg Mean motion: 13.17033096 rev/day Decay rate: 5.1e-07 rev/day^2 Epoch rev: 97471 Checksum: 332
Satellite: MET-2/21 Catalog number: 22782 Epoch time: 11328.71823315 Element set: 264 Inclination: 082.5485 deg RA of node: 195.5187 deg Eccentricity: 0.0022900 Arg of perigee: 012.5111 deg Mean anomaly: 347.6608 deg Mean motion: 13.83669198 rev/day Decay rate: 6.5e-07 rev/day^2 Epoch rev: 92075 Checksum: 308
Satellite: OKEAN-4 Catalog number: 23317 Epoch time: 11327.92079638 Element set: 0765 Inclination: 082.5414 deg RA of node: 223.9578 deg Eccentricity: 0.0020726 Arg of perigee: 316.8949 deg Mean anomaly: 043.0639 deg Mean motion: 14.83385585 rev/day Decay rate: 1.926e-05 rev/day^2 Epoch rev: 92422 Checksum: 334
Satellite: NOAA-14 Catalog number: 23455 Epoch time: 11327.90327904 Element set: 0704 Inclination: 098.8443 deg RA of node: 048.8768 deg Eccentricity: 0.0009162 Arg of perigee: 181.9288 deg Mean anomaly: 178.1847 deg Mean motion: 14.13855241 rev/day Decay rate: 2.32e-06 rev/day^2 Epoch rev: 87164 Checksum: 328
Satellite: NOAA-15 Catalog number: 25338 Epoch time: 11327.91037696 Element set: 0032 Inclination: 098.6711 deg RA of node: 312.0023 deg Eccentricity: 0.0010702 Arg of perigee: 353.4047 deg Mean anomaly: 006.6985 deg Mean motion: 14.24991859 rev/day Decay rate: 4.78e-06 rev/day^2 Epoch rev: 70347 Checksum: 302
Satellite: RESURS Catalog number: 25394 Epoch time: 11327.93307306 Element set: 0964 Inclination: 098.3063 deg RA of node: 322.2155 deg Eccentricity: 0.0002074 Arg of perigee: 103.1546 deg Mean anomaly: 256.9865 deg Mean motion: 14.24257283 rev/day Decay rate: 1.45e-06 rev/day^2 Epoch rev: 69504 Checksum: 291
Satellite: FENGYUN1 Catalog number: 25730 Epoch time: 11328.89295736 Element set: 477 Inclination: 098.8314 deg RA of node: 286.6945 deg Eccentricity: 0.0022101 Arg of perigee: 228.1259 deg Mean anomaly: 131.8025 deg Mean motion: 14.09085069 rev/day Decay rate: 1.651e-05 rev/day^2 Epoch rev: 64569 Checksum: 321
Satellite: OKEAN-0 Catalog number: 25860 Epoch time: 11327.97680804 Element set: 0475 Inclination: 097.9062 deg RA of node: 290.2331 deg Eccentricity: 0.0001064 Arg of perigee: 109.3692 deg Mean anomaly: 250.7631 deg Mean motion: 14.73969047 rev/day Decay rate: 1.291e-05 rev/day^2 Epoch rev: 66419 Checksum: 309
Satellite: NOAA-16 Catalog number: 26536 Epoch time: 11327.86571478 Element set: 0513 Inclination: 099.1248 deg RA of node: 001.5237 deg Eccentricity: 0.0009918 Arg of perigee: 306.0875 deg Mean anomaly: 053.9358 deg Mean motion: 14.12674662 rev/day Decay rate: 4.61e-06 rev/day^2 Epoch rev: 57590 Checksum: 324
Satellite: NOAA-17 Catalog number: 27453 Epoch time: 11327.71283847 Element set: 0496 Inclination: 098.3624 deg RA of node: 359.9519 deg Eccentricity: 0.0012477 Arg of perigee: 045.4205 deg Mean anomaly: 314.7997 deg Mean motion: 14.24353740 rev/day Decay rate: 3.47e-06 rev/day^2 Epoch rev: 48936 Checksum: 343
Satellite: NOAA-18 Catalog number: 28654 Epoch time: 11327.73360525 Element set: 0974 Inclination: 099.0179 deg RA of node: 279.4331 deg Eccentricity: 0.0014679 Arg of perigee: 018.5828 deg Mean anomaly: 341.5883 deg Mean motion: 14.11557082 rev/day Decay rate: 1.97e-06 rev/day^2 Epoch rev: 33543 Checksum: 333
Satellite: NOAA-19 Catalog number: 33591 Epoch time: 11327.69527595 Element set: 0163 Inclination: 098.8429 deg RA of node: 265.2785 deg Eccentricity: 0.0013311 Arg of perigee: 244.7929 deg Mean anomaly: 115.1866 deg Mean motion: 14.11247222 rev/day Decay rate: 1.52e-06 rev/day^2 Epoch rev: 14388 Checksum: 320
/EX SB KEPS @ AMSAT $ORB11328.M Orbital Elements 11328.MISC
HR AMSAT ORBITAL ELEMENTS FOR MANNED AND MISCELLANEOUS SATELLITES FROM WA5QGD FORT WORTH,TX November 24, 2011 Send Subscribe/unsubscribe to KEPS at http://www.amsat.org/mailman/listinfo/keps BID: ORB11328.M TO ALL RADIO AMATEURS BT
Satellite: HUBBLE Catalog number: 20580 Epoch time: 11326.31132196 Element set: 892 Inclination: 028.4700 deg RA of node: 063.2810 deg Eccentricity: 0.0003036 Arg of perigee: 006.5468 deg Mean anomaly: 353.5081 deg Mean motion: 15.01859302 rev/day Decay rate: 3.790e-05 rev/day^2 Epoch rev: 98344 Checksum: 269
Satellite: ISS Catalog number: 25544 Epoch time: 11328.84914510 Element set: 497 Inclination: 051.6422 deg RA of node: 072.2593 deg Eccentricity: 0.0030676 Arg of perigee: 087.7073 deg Mean anomaly: 006.3431 deg Mean motion: 15.58656604 rev/day Decay rate: 6.2142e-04 rev/day^2 Epoch rev: 74599 Checksum: 308
Satellite: CO-58 Catalog number: 28895 Epoch time: 11327.66127578 Element set: 0032 Inclination: 097.9429 deg RA of node: 197.6776 deg Eccentricity: 0.0018847 Arg of perigee: 080.0603 deg Mean anomaly: 280.2722 deg Mean motion: 14.60328836 rev/day Decay rate: 1.346e-05 rev/day^2 Epoch rev: 32351 Checksum: 335
Satellite: FALCON Catalog number: 30776 Epoch time: 11327.78574134 Element set: 222 Inclination: 035.4319 deg RA of node: 095.9887 deg Eccentricity: 0.0002401 Arg of perigee: 012.6025 deg Mean anomaly: 347.4752 deg Mean motion: 15.05815440 rev/day Decay rate: 8.100e-05 rev/day^2 Epoch rev: 25910 Checksum: 275
Satellite: MAST Catalog number: 31126 Epoch time: 11327.98691437 Element set: 0321 Inclination: 097.8854 deg RA of node: 346.0978 deg Eccentricity: 0.0095004 Arg of perigee: 033.5700 deg Mean anomaly: 327.1467 deg Mean motion: 14.53914240 rev/day Decay rate: 1.105e-05 rev/day^2 Epoch rev: 24430 Checksum: 285
Satellite: CAPE1 Catalog number: 31130 Epoch time: 11327.50031586 Element set: 0329 Inclination: 097.8902 deg RA of node: 342.1940 deg Eccentricity: 0.0102805 Arg of perigee: 046.7728 deg Mean anomaly: 314.2009 deg Mean motion: 14.52606554 rev/day Decay rate: 1.454e-05 rev/day^2 Epoch rev: 24376 Checksum: 274
Satellite: COMPASS Catalog number: 32787 Epoch time: 11327.68583620 Element set: 0154 Inclination: 097.8321 deg RA of node: 028.4081 deg Eccentricity: 0.0015925 Arg of perigee: 019.9189 deg Mean anomaly: 340.2667 deg Mean motion: 14.83080973 rev/day Decay rate: 4.536e-05 rev/day^2 Epoch rev: 19319 Checksum: 321
Satellite: AAUSAT2 Catalog number: 32788 Epoch time: 11327.83016736 Element set: 143 Inclination: 097.8323 deg RA of node: 028.8292 deg Eccentricity: 0.0015373 Arg of perigee: 020.7422 deg Mean anomaly: 339.4394 deg Mean motion: 14.83321501 rev/day Decay rate: 4.669e-05 rev/day^2 Epoch rev: 19323 Checksum: 299
Satellite: DO-64 Catalog number: 32789 Epoch time: 11327.70795450 Element set: 0159 Inclination: 097.8410 deg RA of node: 030.0577 deg Eccentricity: 0.0015375 Arg of perigee: 017.3341 deg Mean anomaly: 342.8407 deg Mean motion: 14.84191090 rev/day Decay rate: 7.080e-05 rev/day^2 Epoch rev: 19323 Checksum: 303
Satellite: CO-66 Catalog number: 32791 Epoch time: 11327.80705193 Element set: 0148 Inclination: 097.8337 deg RA of node: 028.4067 deg Eccentricity: 0.0016375 Arg of perigee: 018.7842 deg Mean anomaly: 341.3989 deg Mean motion: 14.82660434 rev/day Decay rate: 3.748e-05 rev/day^2 Epoch rev: 19315 Checksum: 335
Satellite: RS-30 Catalog number: 32953 Epoch time: 11328.23969382 Element set: 284 Inclination: 082.5026 deg RA of node: 063.2078 deg Eccentricity: 0.0019326 Arg of perigee: 040.3957 deg Mean anomaly: 319.8566 deg Mean motion: 12.43017468 rev/day Decay rate: 1.0e-07 rev/day^2 Epoch rev: 15897 Checksum: 310
Satellite: TACSAT-3 Catalog number: 35001 Epoch time: 11327.96180544 Element set: 0783 Inclination: 040.4557 deg RA of node: 277.2324 deg Eccentricity: 0.0011863 Arg of perigee: 299.8741 deg Mean anomaly: 060.0792 deg Mean motion: 15.60431319 rev/day Decay rate: 8.4064e-04 rev/day^2 Epoch rev: 14192 Checksum: 296
Satellite: PHARMSAT Catalog number: 35002 Epoch time: 11327.98644236 Element set: 0717 Inclination: 040.4727 deg RA of node: 276.8049 deg Eccentricity: 0.0015224 Arg of perigee: 322.6707 deg Mean anomaly: 037.3099 deg Mean motion: 15.57167724 rev/day Decay rate: 5.8991e-04 rev/day^2 Epoch rev: 14193 Checksum: 315
Satellite: HAWKSAT1 Catalog number: 35003 Epoch time: 11276.79285837 Element set: 811 Inclination: 040.4398 deg RA of node: 174.3672 deg Eccentricity: 0.0011414 Arg of perigee: 274.3918 deg Mean anomaly: 085.3844 deg Mean motion: 16.13812532 rev/day Decay rate: 2.274821e-02 rev/day^2 Epoch rev: 13457 Checksum: 306
Satellite: CP6 Catalog number: 35004 Epoch time: 11247.64656856 Element set: 784 Inclination: 040.4403 deg RA of node: 342.9642 deg Eccentricity: 0.0002956 Arg of perigee: 038.0069 deg Mean anomaly: 322.2231 deg Mean motion: 16.41039951 rev/day Decay rate: 1.6152067e-01 rev/day^2 Epoch rev: 13013 Checksum: 285
Satellite: METEOR-M Catalog number: 35865 Epoch time: 11328.73821359 Element set: 929 Inclination: 098.6861 deg RA of node: 021.6108 deg Eccentricity: 0.0001969 Arg of perigee: 303.9637 deg Mean anomaly: 056.1348 deg Mean motion: 14.21847972 rev/day Decay rate: 3.1e-07 rev/day^2 Epoch rev: 11340 Checksum: 308
